EW7594 Weather Reports


time (UTC)temp
C
wind
direction
speed
KPH
gust
KPH
rain 1hr
cm
rain 24hr
cm
rain mn
cm
humidity
%
barometer
mb
20260504205703 10 0 0.0 3.2 0.05 0.69 0.15 96 1023.1
20260504204803 10 0 0.0 6.4 0.05 0.79 0.15 96 1023.0
20260504203903 10 0 0.0 4.8 0.05 0.79 0.15 96 1022.9
20260504203004 10 0 0.0 8.0 0.05 0.79 0.15 96 1022.9
20260504202404 10 0 0.0 3.2 0.05 0.81 0.13 96 1022.9
20260504201504 10 0 0.0 3.2 0.03 0.81 0.10 96 1022.8
20260504200603 10 0 0.0 6.4 0.03 0.91 0.10 96 1022.8
20260504195704 10 0 0.0 6.4 0.03 0.91 0.10 96 1022.7
20260504194803 10 0 0.0 1.6 0.03 0.99 0.10 96 1022.5
20260504193903 10 0 0.0 4.8 0.05 0.99 0.10 96 1022.5
20260504193003 10 0 0.0 4.8 0.03 0.99 0.08 96 1022.5
20260504192403 10 0 0.0 8.0 0.03 0.99 0.08 96 1022.4
20260504191503 10 0 0.0 8.0 0.03 0.99 0.08 96 1022.3
20260504190603 10 0 0.0 1.6 0.03 0.99 0.08 96 1022.2
20260504185704 10 0 0.0 1.6 0.03 1.09 0.08 96 1022.2
20260504184803 10 220 1.6 4.8 0.03 1.09 0.08 96 1022.1
20260504183904 10 232 1.6 8.0 0.00 1.09 0.05 96 1022.0
20260504183004 10 0 0.0 6.4 0.03 1.09 0.05 96 1021.9
20260504182403 10 0 0.0 4.8 0.03 1.09 0.05 96 1021.9
20260504181503 10 0 0.0 4.8 0.03 1.09 0.05 96 1021.9
20260504180624 10 0 0.0 8.0 0.03 1.09 0.05 96 1021.9
20260504175703 10 0 0.0 6.4 0.03 1.14 0.05 96 1021.8
20260504174803 10 0 0.0 3.2 0.03 1.19 0.05 96 1021.9
20260504173904 10 0 0.0 3.2 0.03 1.22 0.05 96 1021.9
20260504173003 10 0 0.0 3.2 0.03 1.19 0.05 95 1022.0
20260504172404 10 0 0.0 3.2 0.03 1.19 0.05 95 1022.1
20260504171503 10 228 1.6 8.0 0.03 1.19 0.05 95 1022.1
20260504170604 10 232 1.6 4.8 0.03 1.19 0.05 95 1022.1
20260504150603 10 0 0.0 0.0 0.00 1.45 0.00 94 1022.0
20260504140603 10 0 0.0 3.2 0.00 2.31 2.21 95 1021.7
20260504130603 10 0 0.0 6.4 0.00 2.64 2.21 94 1021.5
20260504110603 10 0 0.0 3.2 0.03 2.79 2.21 95 1020.7
20260504100603 11 0 0.0 4.8 0.00 2.82 2.21 94 1019.9
20260504081503 12 218 1.6 8.0 0.00 4.09 2.21 89 1018.3
20260504080624 12 231 1.6 9.7 0.00 4.09 2.21 88 1018.3
20260504050603 12 232 3.2 16.1 0.00 4.19 2.21 96 1016.5
20260504045703 12 225 3.2 14.5 0.00 4.19 2.21 96 1016.3
20260504044824 12 217 1.6 16.1 0.00 4.19 2.21 96 1016.3
20260504043903 11 214 3.2 14.5 0.00 4.19 2.21 95 1016.2
20260504043003 12 224 3.2 17.7 0.00 4.19 2.21 96 1016.1
20260504042403 12 235 3.2 17.7 0.00 4.19 2.21 95 1016.1
20260504041503 12 242 1.6 8.0 0.00 4.19 2.21 96 1016.0
20260504040603 12 218 1.6 6.4 0.00 4.19 2.21 96 1016.1
20260504035724 11 217 1.6 12.9 0.00 4.19 2.21 96 1016.1
20260504034824 12 224 3.2 11.3 0.00 4.19 2.21 96 1016.2
20260504033903 12 221 3.2 17.7 0.00 4.19 2.21 96 1016.2
20260504033003 12 209 1.6 6.4 0.00 4.19 2.21 97 1016.2
20260504032403 12 238 1.6 8.0 0.00 4.19 2.21 97 1016.1
20260504031524 12 222 3.2 12.9 0.00 4.19 2.21 97 1016.2
20260504030624 11 227 3.2 19.3 0.00 4.19 2.21 97 1016.3
20260504025703 11 238 1.6 9.7 0.00 4.19 2.21 97 1016.4
20260504024803 11 222 1.6 14.5 0.00 4.19 2.21 97 1016.4
20260504023903 11 223 3.2 14.5 0.00 4.19 2.21 97 1016.3
20260504023024 11 224 1.6 8.0 0.03 4.19 2.21 97 1016.4
20260504022424 12 209 1.6 6.4 0.03 4.19 2.21 97 1016.5
20260504021503 12 219 3.2 11.3 0.03 4.19 2.21 97 1016.5
20260504020624 12 216 3.2 17.7 0.03 4.19 2.21 97 1016.4
20260504015703 11 231 4.8 19.3 0.03 4.19 2.21 97 1016.3
20260504014803 12 228 3.2 19.3 0.05 4.19 2.21 97 1016.3
20260504013924 12 218 3.2 9.7 0.05 4.19 2.21 97 1016.3
20260504013025 12 213 1.6 6.4 0.03 4.19 2.18 97 1016.2
20260504012403 12 187 1.6 8.0 0.03 4.19 2.18 98 1016.1
20260504011503 12 219 3.2 11.3 0.05 4.19 2.18 98 1016.0
20260504010603 11 229 1.6 14.5 0.05 4.19 2.18 97 1016.0
20260504005703 11 236 3.2 12.9 0.05 4.19 2.18 97 1015.9
20260504004803 11 233 1.6 11.3 0.03 4.17 2.16 97 1015.7
20260504003903 11 229 1.6 16.1 0.03 4.17 2.16 97 1015.7
20260504003003 11 233 3.2 20.9 0.03 4.17 2.16 98 1015.6
20260504002403 11 229 1.6 20.9 0.03 4.17 2.16 98 1015.5
20260504001503 11 230 3.2 9.7 0.03 4.14 2.13 98 1015.5
20260504000603 11 225 3.2 9.7 0.05 4.14 2.13 98 1015.5
20260503235724 11 224 3.2 14.5 0.05 4.14 2.13 98 1015.3
20260503234803 11 219 1.6 9.7 0.05 4.14 2.13 98 1015.2
20260503233903 11 232 1.6 12.9 0.05 4.14 2.13 98 1015.2
20260503233003 11 224 4.8 17.7 0.10 4.14 2.13 98 1015.0
20260503232403 11 232 1.6 17.7 0.10 4.14 2.13 98 1015.0
20260503231503 11 236 1.6 12.9 0.08 4.11 2.11 98 1014.7
20260503230603 11 238 3.2 12.9 0.08 4.09 2.11 98 1014.8
20260503225704 11 232 1.6 14.5 0.15 4.09 2.08 98 1014.5
20260503224824 11 252 3.2 17.7 0.18 4.09 2.08 98 1014.3
20260503223903 11 237 1.6 9.7 0.23 4.09 2.08 98 1014.2
20260503223024 11 220 1.6 11.3 0.23 4.04 2.03 98 1014.0
20260503222403 11 244 1.6 11.3 0.23 4.04 2.03 98 1013.9
20260503221524 10 230 1.6 12.9 0.23 4.06 2.03 98 1014.0
20260503220624 11 197 1.6 8.0 0.25 4.04 2.03 98 1013.7
20260503215703 10 247 1.6 12.9 0.25 3.96 1.93 98 1013.5
20260503214803 10 166 1.6 12.9 0.33 3.94 1.91 98 1013.4
20260503213924 10 228 1.6 9.7 0.28 3.91 1.83 98 1013.3
20260503213024 10 222 1.6 16.1 0.25 3.94 1.83 97 1013.4
20260503212403 10 214 1.6 16.1 0.30 3.96 1.83 97 1013.2
20260503211503 10 212 1.6 16.1 0.33 3.99 1.83 97 1013.2
20260503210603 10 219 1.6 6.4 0.36 3.99 1.80 98 1012.8